カタログに戻る

DMSP 5D-2 F13 DEB

運用中SSO
NORAD 40498·DEBRIS·🇺🇸 United States

打ち上げ Mar 24, 1995 から Vandenberg Space Force Base

Loading…

次のパス (今後24時間)

TLE

経年Source: Space-Track

元期: Sep 10, 2026, 08:58 UTC

1 40498U 95015CM  26253.37366921  .00002548  00000-0  95344-3 0  9997
2 40498  98.8789 289.5691 0026214   8.2172 351.9435 14.32495688594425

AllMySatでDMSP 5D-2 F13 DEBをリアルタイム追跡

Download on the App Store